Regional Weather Roundup
Issued by NWS Bismarck, ND

Home | Current Version | Previous Version | Text Only | Print | Product List | Glossary On
Versions: 1 2 3 4 5 6 7 8 9 10 11 12 13 14 15 16 17 18 19 20 21 22 23 24 25 26 27 28 29 30 31 32 33 34 35 36 37 38 39 40 41 42 43 44 45 46 47 48 49 50
000
ASUS43 KBIS 071610
RWRBIS

NWR BROADCAST TEXT
NATIONAL WEATHER SERVICE BISMARCK ND
1000 AM CST WED DEC 07 2016

NOTE: "FAIR" INDICATES FEW OR NO CLOUDS BELOW 12,000 FEET WITH NO
SIGNIFICANT WEATHER AND/OR OBSTRUCTIONS TO VISIBILITY.


CITY           SKY/WX    TMP DP  RH WIND       PRES   REMARKS
WILLISTON      CLOUDY     0  -8  69 NW10      30.39R WCI -16
MINOT          CLOUDY     5   0  79 W31G40    30.17R WCI -19
MINOT AFB      SNOW       3  -2  78 NW35G44   30.16R VSB 1/2 WCI -23
BISMARCK       CLOUDY     4  -1  80 NW22G37   30.26R WCI -18
DICKINSON      PTSUNNY   -2  -7  79 NW28G35   30.26R HAZE    WCI -28
GARRISON         N/A      1  -4  79 NW36G46   30.20R WCI -26
HETTINGER ARPT MOSUNNY    2  -4  76 NW29G35   30.29R WCI -23
JAMESTOWN      LGT SNOW   8   4  83 NW31G44   30.07R VSB 3/4 WCI -15
BEACH          LGT SNOW   0  -6  78 NW22G29   30.38R WCI -23
CARRINGTON     SNOW       7   3  85 NW33G44   30.09R VSB<1/4 WCI -18
HAZEN          HVY SNOW   1  -4  78 W23G33    30.29R WCI -21
RUGBY          LGT SNOW   5   3  92 NW33G41   30.09R VSB 3/4 WCI -20
STANLEY        LGT SNOW   1  -2  85 NW32G41   30.25R WCI -25
TIOGA          LGT SNOW   0  -4  85 NW25G32   30.29R WCI -25
WATFORD CITY   LGT SNOW   0  -8  71 W17G25    30.36R WCI -21
$$

CITY           SKY/WX    TMP DP  RH WIND       PRES   REMARKS
GRAND FORKS    CLOUDY    16  10  77 NW26G37   29.94R BLWGSNOWWCI  -3
GRAND FORKS AF LGT SNOW  16   9  73 NW24G32   29.95R WCI  -3
DEVILS LAKE    SNOW       8   5  87 NW32G39   30.00R VSB 1/2 WCI -16
FARGO          LGT SNOW  14   7  73 W28G35    30.01S WCI  -6
CANDO          LGT SNOW  10   7  85 NW22      30.04R WCI  -9
CAVALIER       SNOW      18  14  86 NW29G40   29.92R VSB 1/2 WCI  -2
GRAFTON        PTSUNNY   16  12  86 NW24G35   29.94R FOG     WCI  -3
GWINNER        CLOUDY    14   9  79 W26G38    30.09R WCI  -6
LANGDON        SNOW      12  10  92 NW31G39   29.93R VSB 1/4 WCI -10
ROLLA          HVY SNOW   9   7  92 NW35G45   30.00R VSB 1/4 WCI -15
WALHALLA       LGT SNOW  16  16 100 NW23G36   29.94R WCI  -2
$$

CITY           SKY/WX    TMP DP  RH WIND       PRES   REMARKS
ABERDEEN       PTSUNNY   13   2  61 NW25G36   30.18R WCI  -7
MOBRIDGE       PTSUNNY    9   0  67 NW31G41   30.23R WCI -14
BUFFALO          N/A      3  -4  72 NW22G32   30.24R WCI -19
RAPID CITY     CLOUDY     8  -2  63 NW29      30.31R WCI -15
GLASGOW        MOCLDY    -1 -10  65 NW25      30.47R WCI -25
SIDNEY         SUNNY     -2  -9  72 NW30G37   30.39R WCI -29
WOLF POINT     CLEAR      1  -9  62 W18G25    30.47R WCI -20
GLENDIVE       CLOUDY     0  -6  76 NW21G29   30.40R WCI -22
MILES CITY     CLOUDY     5  -6  60 NW18      30.45R WCI -15
BAKER          LGT SNOW   2  -3  80 W22G31    30.34R WCI -20
$$

CITY           SKY/WX    TMP DP  RH WIND       PRES   REMARKS
BILLINGS       PTCLDY     3  -3  76 CALM      30.39R
GREAT FALLS    CLOUDY    -3 -10  72 W3        30.46R
REGINA         CLOUDY     0  -6  78 NW23      30.36R BLWGSNOWWCI -24
ESTEVAN        LGT SNOW   0  -4  85 NW28G37   30.28R BLWGSNOWWCI -26
$$





USA.gov is the U.S. government's official web portal to all federal, state and local government web resources and services.